Flag for Germany Weather past 2 weeks in Schwerin, Mecklenburg-Western Pomerania, Germany

Now
40 °F

Overcast.


Feels Like: 35 °F
Forecast: 33 / 39 °F
Wind: 7 mph from Northwest

Location: Schwerin

Current Time: Jan 27, 2015 at 12:21:25 PM

Latest Report: Jan 27, 2015 at 12:00 PM


Visibility: 14 mi

Pressure: 29.94 "Hg

Humidity: 79%

Dew point: 33 °F

Location of SchwerinLocation

Historic Weather in Schwerin — Graph

°F

Schwerin temperature yesterday

Maximum temperature yesterday: 40 °F (at 9:00 PM)
Minimum temperature yesterday: 35 °F (at 5:00 AM)
Average temperature yesterday: 36 °F

Past Weeks' High & Low Weather Summary

 TemperatureHumidityPressure
High48 °F (Jan 13, 12:00 PM)100% (Jan 25, 7:00 PM)30.33 "Hg (Jan 25, 7:00 PM)
Low27 °F (Jan 23, 11:00 PM)68% (Jan 16, 1:00 PM)29.38 "Hg (Jan 15, 7:00 PM)
Average36 °F89%29.88 "Hg
* Reported Jan 12 11:00 AM — Jan 27 11:00 AM, Schwerin, Weather by CustomWeather, © 2014

Note: Actual official high and low records may vary slightly from our data, if they occured in-between our weather recording intervals... More about our weather records

Advertising

Schwerin weather history for previous 24 hours

 ConditionsComfort  
Time TempWeatherWind HumidityBarometerVisibility
11:00 AM
Jan 27
39 °FOvercast.7 mph83%29.94 "Hg12 mi
9:00 AM37 °FScattered clouds.8 mph86%29.91 "Hg14 mi
8:00 AM37 °FOvercast.7 mph86%29.89 "Hg12 mi
7:00 AM37 °FOvercast.7 mph90%29.89 "Hg12 mi
6:00 AM37 °FOvercast.7 mph90%29.88 "Hg12 mi
5:00 AM38 °FPassing clouds.7 mph91%29.87 "Hg17 mi
3:00 AM38 °FLow clouds.6 mph93%29.86 "Hg19 mi
2:00 AM37 °FLow clouds.6 mph93%29.85 "Hg19 mi
1:00 AM38 °FOvercast.8 mph93%29.85 "Hg14 mi
12:00 AM38 °FLight freezing rain. Overcast.6 mph93%29.84 "Hg9 mi
11:00 PM
Jan 26
38 °FLight rain. Overcast.7 mph94%29.83 "Hg6 mi
9:00 PM40 °FDrizzle. Low clouds.7 mph98%29.80 "Hg6 mi
8:00 PM38 °FLight freezing rain. Low clouds.7 mph98%29.82 "Hg1 mi
7:00 PM38 °FLight freezing rain. Low clouds.7 mph98%29.84 "Hg2 mi
6:00 PM37 °FLight rain. Low clouds.7 mph98%29.85 "Hg3 mi
5:00 PM37 °FDrizzle. Low clouds.6 mph98%29.87 "Hg1 mi
3:00 PM37 °FLight rain. Low clouds.6 mph97%29.93 "Hg4 mi
2:00 PM37 °FLight rain. Low clouds.7 mph98%29.96 "Hg2 mi
1:00 PM37 °FLight freezing rain. Low clouds.7 mph97%30.00 "Hg1 mi
12:00 PM36 °FDrizzle. Low clouds.7 mph97%30.04 "Hg1 mi
Weather by CustomWeather, © 2014

See weather overviewHow to use our weather pages